User: anonymous   Login
Location: Campillo
(40.8621°N, 4.2488°W)
Time: 00:31:54
(UTC+00:00)
Language:

NOSS 3-4 (C) - Orbit

View from above orbital plane
View from above orbital plane
View from above satellite
View from above satellite

Ground track
Ground track

The orbit data is extracted from the following two-line orbital elements,

1 31708U 07027C   21207.86222700 0.00000000  00000-0  00000-0 0    07
2 31708  63.3986 214.7874 0317675  19.3962 340.6037 13.40815631    03
Epoch (UTC): 26 July 2021 20:41:36
Eccentricity: 0.0317675
inclination: 63.3986°
perigee height: 868 km
apogee height: 1344 km
right ascension of ascending node: 214.7874°
argument of perigee: 19.3962°
revolutions per day: 13.40815631
mean anomaly at epoch: 340.6037°
orbit number at epoch: 0

The dashed part of the orbit path shows where the satellite is in the earth's shadow,  

DLR